Temp
62 63 63 62 62 61 61 61 61 61 61 61 60 60 60 59 58 64 62 67 68 68 67 72 72 70 68 63 65 62 47 50 52 56 63 74 70 75 75 73 75 76 74 79 80
62 62 62 62 61 61 61 60 60 60 60 60 60 59 59 59 57 58 69 68 67 68 69 68 68 70 60 61 61 55 46 52 62 66 65 69 69 71 70 71 72 72 78 81 81
61 61 61 61 61 60 60 60 59 60 59 59 59 59 59 58 56 66 67 67 68 68 70 70 71 68 61 61 61 58 55 63 66 70 70 68 68 73 67 66 69 69 73 76 75
60 60 60 60 60 60 59 59 59 59 59 59 59 59 59 56 49 67 67 67 68 69 70 68 67 61 57 56 64 57 64 67 68 71 69 68 72 69 68 68 74 74 75 73 73
59 59 59 60 60 59 59 58 59 59 59 59 59 59 56 51 55 72 68 67 69 70 67 66 62 61 56 60 61 59 63 67 68 68 67 70 67 68 69 72 75 77 78 74 73
58 58 58 59 59 59 58 58 58 58 58 58 58 57 51 43 69 74 74 68 70 66 64 66 63 65 60 60 57 62 63 64 66 66 67 65 66 67 69 72 72 74 74 73 73
58 58 58 58 58 59 59 58 58 57 57 58 58 58 51 50 67 69 70 69 69 69 64 69 69 62 61 57 64 62 54 58 60 61 61 66 60 62 70 72 70 72 75 72 72
58 58 57 57 57 58 58 57 58 57 57 57 58 55 45 66 67 66 64 64 72 73 71 70 70 63 58 61 59 53 53 45 56 61 64 61 51 64 69 68 68 71 72 72 71
57 57 57 56 56 57 57 57 57 57 56 56 51 51 45 68 62 68 70 66 70 72 70 76 65 56 56 47 43 47 40 44 50 61 61 59 54 65 66 69 69 70 70 68 68
57 57 57 56 56 56 55 55 55 54 54 57 56 48 54 58 69 71 71 71 66 65 63 60 54 47 46 42 33 38 41 45 46 54 56 52 54 62 66 65 65 67 63 65 65
57 57 56 56 56 54 52 49 46 45 48 46 49 52 62 69 73 68 72 68 64 58 48 54 43 39 45 49 50 49 47 46 51 57 53 51 52 51 57 59 60 64 64 63 66
56 56 56 56 56 54 55 47 53 53 43 49 54 54 61 64 57 65 69 58 55 47 51 46 42 51 54 53 51 50 46 45 50 56 52 49 46 52 56 57 60 63 64 65 64
55 55 55 55 54 53 50 52 60 60 42 53 52 52 56 60 54 56 64 60 54 49 49 44 49 57 54 51 50 49 45 45 45 50 51 46 43 48 56 60 63 66 70 70 63
54 55 54 54 50 50 50 57 60 59 33 45 54 58 60 61 54 65 66 60 53 49 50 47 55 53 51 49 50 43 51 45 43 39 32 43 30 43 49 52 59 62 64 61 60
54 54 55 55 50 48 52 58 57 53 22 55 58 71 65 55 61 61 68 60 50 50 49 46 49 48 43 47 48 43 46 42 41 36 37 37 32 40 49 49 55 57 60 58 57
54 54 55 53 52 54 57 55 52 34 24 49 57 56 55 56 59 62 61 61 57 49 49 49 51 48 45 50 49 48 42 41 39 37 27 37 36 35 42 48 49 55 57 57 55
53 55 54 55 47 56 55 49 33 27 52 48 52 55 53 51 54 56 53 46 42 34 35 44 45 48 52 43 47 40 35 26 22 26 24 44 37 37 47 52 52 51 50 54 55
50 52 49 51 55 56 50 39 27 41 44 58 54 56 48 53 52 52 49 44 47 45 38 35 31 46 50 45 40 37 35 26 20 22 28 39 30 37 48 48 47 48 48 50 52
50 46 45 47 53 53 43 32 33 42 52 49 51 46 47 52 52 50 48 45 50 49 37 36 38 51 53 51 47 39 32 41 31 32 25 31 39 46 42 44 45 46 47 47 50
45 43 43 48 50 46 39 36 40 50 53 51 41 44 42 46 47 48 43 52 50 55 51 44 33 48 52 51 49 43 45 30 31 23 22 33 35 29 34 35 40 41 46 47 47
44 39 43 48 48 39 32 34 43 52 54 48 43 42 42 42 44 42 42 47 49 49 53 46 40 39 47 42 39 41 38 38 36 33 25 26 30 34 32 37 38 41 45 46 46
42 33 44 46 34 33 33 39 48 47 54 50 48 46 43 46 44 43 41 45 51 50 44 46 41 33 39 49 52 49 42 41 28 28 30 30 30 40 41 41 43 46 45 45 44
37 35 44 43 29 31 36 41 47 45 45 44 46 48 48 43 38 41 42 48 50 47 42 43 33 29 33 40 45 42 45 43 40 36 30 26 29 44 44 46 47 43 43 43 42
36 29 34 35 35 34 35 35 37 45 47 49 49 50 43 41 45 39 38 46 49 50 47 47 41 35 28 32 37 36 43 46 40 27 30 33 34 38 43 41 42 41 41 40 39
37 34 34 27 30 34 39 38 37 38 48 51 45 43 40 35 39 38 42 43 47 47 46 43 33 39 43 43 44 43 43 45 41 40 30 37 33 36 37 37 38 40 40 38 36
33 35 39 34 37 33 34 36 36 40 42 42 40 43 43 37 40 34 38 37 38 43 42 43 31 37 34 43 43 38 43 42 43 43 42 37 30 37 38 38 35 36 36 34 34
39 41 38 34 35 32 32 36 39 42 47 48 45 43 42 43 45 46 44 46 45 39 36 36 32 32 26 38 38 29 36 40 40 37 39 29 34 36 33 32 30 32 32 32 31
MSLP
1018.49 1018.43 1018.41 1018.30 1018.31 1018.27 1018.29 1018.36 1018.48 1018.52 1018.40 1018.49 1018.47 1018.08 1017.83 1017.56 1016.44 1014.90 1014.37 1013.09 1012.74 1012.67 1012.90 1012.34 1012.05 1011.93 1012.00 1012.34 1012.03 1011.82 1012.25 1011.43 1010.71 1009.52 1007.73 1006.46 1006.21 1005.28 1004.13 1003.97 1003.90 1004.09 1004.25 1004.38 1004.84
1018.28 1018.35 1018.28 1018.34 1018.13 1018.08 1018.11 1018.01 1018.14 1018.30 1018.43 1018.40 1018.45 1018.18 1017.76 1017.55 1016.75 1014.43 1012.50 1012.49 1012.50 1012.47 1012.74 1012.45 1012.11 1011.63 1012.18 1011.86 1011.92 1011.87 1011.57 1010.51 1010.01 1009.01 1008.08 1007.00 1006.49 1006.04 1005.34 1004.92 1004.63 1004.21 1004.17 1004.32 1004.34
1018.21 1018.24 1018.25 1018.08 1018.05 1017.91 1017.80 1017.84 1017.76 1017.91 1018.27 1018.33 1018.38 1018.32 1017.96 1017.47 1016.48 1013.01 1012.26 1012.20 1012.45 1012.35 1012.46 1012.42 1012.12 1011.98 1011.97 1011.59 1011.40 1010.92 1010.56 1010.05 1009.32 1008.57 1007.75 1007.21 1006.27 1006.03 1005.78 1005.33 1005.22 1005.18 1004.74 1004.34 1004.47
1018.07 1018.08 1018.07 1017.98 1017.70 1017.87 1017.59 1017.57 1017.48 1017.55 1017.92 1018.37 1018.22 1018.34 1018.03 1017.72 1015.67 1012.11 1012.11 1012.09 1012.19 1012.25 1012.45 1012.26 1012.08 1012.21 1011.98 1011.70 1010.84 1010.52 1009.96 1009.42 1008.70 1008.15 1007.67 1007.06 1006.68 1005.96 1005.82 1005.57 1005.44 1004.95 1004.94 1004.77 1004.71
1017.94 1017.82 1017.78 1017.80 1017.47 1017.55 1017.33 1017.39 1017.26 1017.28 1017.58 1018.25 1018.11 1018.43 1018.05 1017.36 1014.01 1012.16 1012.17 1012.27 1012.30 1012.41 1012.38 1012.30 1012.11 1011.93 1011.84 1011.56 1011.15 1010.30 1009.66 1009.08 1008.50 1008.19 1007.81 1007.37 1006.62 1005.94 1004.99 1005.46 1005.14 1005.01 1004.83 1004.64 1004.58
1017.58 1017.57 1017.58 1017.43 1017.41 1017.36 1016.94 1017.12 1016.93 1017.08 1017.40 1017.97 1018.10 1018.42 1018.26 1016.58 1012.50 1011.46 1011.58 1012.03 1011.93 1012.08 1012.15 1012.27 1011.88 1011.58 1011.45 1011.42 1011.61 1010.93 1010.07 1009.20 1008.49 1007.93 1007.62 1007.44 1006.16 1006.14 1005.73 1005.39 1004.98 1004.76 1004.70 1004.46 1004.51
1017.27 1017.23 1017.38 1017.01 1016.96 1016.93 1016.75 1016.83 1016.83 1016.79 1017.22 1017.61 1018.12 1018.05 1017.46 1014.50 1012.02 1011.12 1011.44 1011.74 1011.58 1011.31 1011.52 1011.54 1011.50 1011.79 1011.58 1011.58 1011.33 1011.01 1010.38 1009.45 1008.96 1008.25 1008.00 1007.77 1005.18 1005.62 1005.42 1005.20 1004.31 1004.12 1003.99 1004.04 1004.12
1016.88 1016.99 1017.01 1016.73 1016.39 1016.47 1016.30 1016.46 1016.46 1016.79 1017.06 1017.41 1017.83 1017.88 1015.90 1012.69 1011.64 1011.49 1011.18 1011.11 1010.65 1010.53 1010.62 1010.90 1011.13 1011.45 1011.79 1011.78 1011.66 1011.86 1011.35 1009.94 1008.57 1008.58 1007.84 1008.05 1003.90 1005.24 1004.61 1004.27 1003.69 1003.59 1003.42 1003.51 1003.69
1016.23 1016.77 1016.58 1016.30 1016.03 1016.00 1015.90 1015.96 1016.17 1016.83 1017.18 1017.71 1017.81 1017.46 1014.38 1011.54 1011.13 1010.38 1010.47 1010.33 1010.07 1009.90 1009.99 1010.41 1011.16 1011.72 1012.17 1012.45 1012.45 1012.23 1011.31 1010.62 1007.74 1008.75 1007.67 1007.72 1005.26 1004.69 1004.80 1004.34 1003.08 1002.65 1002.71 1003.03 1003.39
1015.96 1016.26 1016.02 1015.78 1015.62 1015.63 1015.87 1015.89 1016.79 1017.26 1017.43 1017.64 1017.24 1016.88 1013.26 1010.59 1009.56 1009.46 1009.28 1009.74 1009.95 1009.94 1010.02 1010.43 1011.39 1011.95 1012.38 1012.74 1012.27 1011.88 1011.51 1010.40 1008.99 1008.96 1008.43 1007.60 1006.53 1004.93 1004.67 1004.42 1003.65 1002.31 1002.26 1002.57 1003.40
1015.43 1015.62 1015.46 1015.28 1015.15 1015.37 1016.34 1016.57 1017.58 1017.03 1016.47 1014.69 1013.65 1012.57 1010.41 1009.05 1008.44 1009.01 1008.87 1009.37 1009.82 1010.25 1010.53 1010.55 1011.40 1011.74 1011.64 1011.79 1011.74 1011.50 1011.16 1010.48 1008.84 1008.99 1008.92 1007.86 1007.48 1006.63 1005.15 1005.00 1004.19 1003.27 1002.32 1002.60 1003.72
1014.88 1015.11 1014.93 1014.82 1014.67 1015.08 1015.52 1015.59 1014.68 1014.31 1013.61 1013.04 1012.18 1011.51 1010.47 1009.53 1009.77 1008.77 1008.54 1009.49 1009.95 1010.39 1010.60 1010.94 1010.03 1010.67 1010.79 1010.92 1011.15 1010.99 1010.75 1010.15 1009.39 1009.01 1009.29 1008.55 1007.83 1007.08 1005.91 1004.70 1004.45 1003.65 1002.07 1002.73 1004.04
1014.31 1014.38 1014.34 1014.15 1014.53 1015.17 1015.03 1014.66 1014.04 1013.71 1013.07 1010.23 1010.06 1009.24 1009.41 1009.76 1008.57 1008.31 1008.66 1008.88 1009.57 1010.19 1010.45 1010.15 1009.39 1009.71 1010.03 1010.07 1010.43 1010.15 1010.66 1010.65 1010.29 1009.65 1009.32 1009.45 1008.04 1007.18 1005.17 1004.53 1003.61 1002.66 1002.81 1002.28 1003.03
1013.62 1013.79 1013.84 1013.90 1015.00 1014.56 1014.74 1014.55 1014.26 1013.88 1013.26 1008.82 1007.62 1006.39 1007.44 1008.07 1007.51 1006.53 1007.44 1008.33 1008.63 1009.29 1010.06 1009.48 1009.56 1009.48 1009.49 1009.50 1010.09 1009.86 1010.38 1011.27 1011.35 1011.54 1011.04 1010.61 1009.42 1006.78 1006.05 1005.15 1003.93 1003.50 1003.46 1003.84 1004.32
1012.94 1012.96 1013.16 1013.26 1013.25 1013.84 1013.96 1014.24 1014.43 1014.21 1012.67 1006.71 1005.45 1004.50 1005.05 1006.77 1005.41 1005.27 1006.22 1007.27 1007.80 1008.37 1009.67 1008.54 1009.07 1009.29 1009.36 1009.60 1010.27 1010.79 1011.31 1012.13 1012.61 1012.73 1012.44 1010.69 1011.33 1005.07 1006.34 1005.03 1004.30 1004.09 1004.79 1005.01 1006.02
1012.09 1011.88 1012.29 1012.95 1012.81 1013.05 1013.39 1014.31 1014.60 1014.44 1010.20 1006.03 1004.89 1004.65 1005.21 1006.03 1005.52 1005.79 1006.21 1006.62 1007.15 1008.16 1008.81 1008.72 1009.27 1009.63 1009.74 1009.91 1010.40 1011.07 1011.93 1012.55 1013.17 1013.56 1012.31 1010.55 1010.27 1005.43 1005.99 1005.32 1005.27 1005.94 1005.93 1005.25 1006.85
1011.36 1010.91 1011.51 1011.85 1012.42 1012.72 1013.31 1014.44 1014.43 1012.05 1007.67 1005.42 1004.61 1004.55 1004.89 1005.33 1005.55 1005.73 1006.40 1007.06 1007.51 1008.46 1008.83 1008.81 1008.94 1009.26 1009.69 1010.29 1010.74 1011.60 1012.71 1013.80 1013.83 1013.31 1011.24 1009.54 1008.90 1007.24 1006.29 1005.65 1005.22 1006.61 1007.33 1006.71 1007.82
1011.57 1010.94 1011.71 1011.74 1011.67 1012.12 1013.30 1013.96 1012.00 1008.73 1007.04 1004.66 1004.68 1004.32 1004.42 1004.81 1005.21 1005.74 1006.36 1006.76 1007.26 1007.91 1008.54 1008.83 1008.81 1008.27 1008.93 1009.42 1010.10 1011.09 1012.60 1013.70 1013.22 1012.66 1011.34 1010.21 1008.89 1007.50 1007.37 1006.87 1007.65 1007.62 1007.66 1008.82 1009.37
1012.17 1012.00 1012.17 1012.12 1011.73 1012.20 1012.63 1011.89 1009.95 1007.83 1006.22 1005.85 1005.15 1004.96 1004.39 1004.26 1004.56 1005.34 1005.79 1006.13 1006.63 1007.26 1008.39 1008.58 1008.31 1007.88 1007.69 1008.50 1009.99 1010.95 1012.09 1012.62 1013.20 1012.70 1011.94 1010.28 1008.70 1008.43 1008.79 1008.43 1009.01 1008.65 1008.87 1009.63 1010.67
1012.33 1012.39 1012.35 1012.17 1012.06 1012.51 1012.23 1010.59 1008.62 1007.26 1006.39 1006.05 1005.48 1005.24 1004.72 1004.67 1005.02 1005.24 1006.03 1005.89 1005.97 1006.19 1007.07 1008.26 1008.52 1008.02 1007.82 1008.65 1009.35 1009.83 1010.96 1012.41 1013.12 1012.73 1011.59 1010.08 1009.99 1011.40 1011.13 1010.78 1010.67 1011.05 1010.94 1011.38 1012.14
1012.28 1012.56 1012.33 1012.28 1012.38 1012.90 1011.25 1009.82 1008.30 1007.17 1006.49 1006.16 1005.89 1005.86 1005.46 1005.42 1005.58 1005.97 1006.75 1006.75 1006.60 1006.45 1006.91 1008.28 1008.77 1008.71 1008.28 1008.41 1008.41 1009.36 1010.26 1011.32 1012.36 1012.57 1011.93 1011.04 1011.78 1012.98 1012.45 1012.59 1012.65 1012.49 1012.93 1013.22 1013.73
1012.08 1012.19 1012.28 1012.35 1012.81 1012.10 1010.55 1009.55 1008.01 1007.29 1006.62 1006.14 1006.30 1006.11 1006.14 1005.85 1006.12 1006.33 1006.60 1007.02 1007.17 1006.81 1007.28 1008.07 1009.00 1008.97 1008.39 1008.11 1008.21 1008.55 1009.14 1010.09 1011.51 1011.95 1011.92 1011.70 1012.32 1012.96 1012.98 1013.34 1013.33 1013.17 1013.94 1014.29 1014.91
1011.49 1012.26 1012.18 1012.33 1011.81 1011.40 1010.39 1009.31 1008.16 1007.18 1006.79 1006.65 1005.92 1005.91 1005.87 1006.09 1006.41 1006.55 1006.74 1007.39 1007.59 1007.86 1008.35 1008.65 1009.53 1009.23 1008.46 1008.46 1008.18 1008.05 1008.18 1009.03 1010.06 1011.07 1011.46 1011.87 1012.39 1012.62 1013.03 1013.13 1013.56 1014.07 1014.79 1015.44 1015.96
1010.97 1011.77 1012.02 1012.22 1011.69 1010.85 1010.05 1009.14 1008.57 1007.58 1006.39 1005.90 1005.55 1005.90 1006.25 1006.32 1006.35 1006.74 1007.51 1007.79 1007.89 1007.79 1008.51 1008.58 1008.49 1008.29 1008.24 1008.46 1008.47 1008.00 1008.04 1008.40 1009.28 1010.33 1010.83 1011.45 1012.13 1013.05 1013.15 1013.99 1014.48 1015.21 1015.61 1016.07 1016.67
1009.89 1009.58 1010.11 1010.89 1010.75 1010.32 1009.70 1008.58 1007.94 1007.01 1005.78 1005.51 1005.76 1005.78 1006.45 1006.81 1006.59 1006.89 1007.50 1008.19 1008.26 1008.31 1008.87 1009.36 1009.34 1008.72 1008.33 1008.44 1008.18 1008.23 1007.79 1008.17 1008.78 1009.53 1010.51 1011.22 1012.47 1013.82 1014.71 1015.35 1015.80 1016.29 1016.73 1017.01 1017.36
1009.18 1009.26 1009.08 1008.88 1009.14 1009.64 1009.15 1007.76 1007.13 1006.51 1006.21 1005.69 1005.59 1005.85 1006.22 1006.45 1006.70 1007.09 1007.62 1008.63 1008.17 1008.70 1009.11 1009.55 1009.72 1009.32 1009.19 1008.80 1008.53 1008.70 1008.55 1008.69 1009.15 1009.76 1010.54 1012.14 1014.03 1015.31 1016.03 1016.61 1017.19 1017.66 1018.18 1018.83 1019.47
1008.92 1008.13 1008.51 1008.26 1008.23 1008.72 1007.91 1007.01 1006.17 1005.72 1005.30 1004.93 1005.07 1005.71 1005.91 1006.20 1006.94 1007.22 1007.63 1007.91 1008.33 1008.76 1009.36 1009.79 1009.96 1009.97 1010.03 1009.48 1009.34 1009.58 1009.64 1009.74 1010.44 1011.51 1011.88 1013.03 1014.70 1016.30 1017.32 1018.24 1019.10 1019.40 1019.84 1020.36 1020.84
Wind_Speed
5 6 8 9 9 9 9 9 9 8 6 8 10 12 15 18 23 6 6 4 3 2 2 6 5 10 6 5 6 2 2 11 9 7 13 13 16 11 2 2 2 3 2 6 8
6 7 8 8 8 8 10 10 10 8 7 7 9 11 14 16 7 12 6 5 5 3 3 5 7 6 3 5 4 5 3 8 8 15 13 20 13 16 7 6 5 2 5 6 5
8 9 10 8 8 8 9 11 11 9 8 6 6 9 13 14 6 4 6 7 6 4 3 4 8 8 7 5 7 7 13 13 16 16 18 15 22 17 12 10 6 6 8 8 5
8 10 11 11 10 10 9 10 12 10 9 8 4 7 12 4 7 2 8 8 6 2 3 4 5 5 4 6 6 11 15 15 17 16 15 20 19 18 10 9 9 10 7 3 3
8 9 11 13 11 10 9 10 10 11 9 8 5 4 6 4 15 8 9 6 3 1 4 7 8 6 9 6 9 12 11 13 15 14 11 15 15 21 21 9 10 12 14 9 7
10 10 11 12 11 11 10 11 8 10 10 9 5 1 3 11 8 14 17 7 7 6 5 7 6 8 9 11 12 12 19 21 17 19 16 19 23 16 10 10 11 10 14 10 9
11 12 13 10 10 11 11 10 9 11 11 9 6 3 9 21 8 13 15 7 4 7 8 10 9 6 9 14 11 11 17 20 13 8 8 12 30 22 18 17 18 15 16 11 10
12 13 13 11 9 12 11 11 9 12 13 9 4 3 10 12 14 19 19 15 12 12 11 6 7 6 4 7 11 13 11 15 5 12 16 13 37 12 11 13 19 23 16 11 9
12 14 13 12 11 11 9 10 8 13 11 6 2 4 12 13 7 14 13 12 10 10 7 6 4 4 5 5 7 6 14 15 26 14 20 14 28 19 14 18 23 20 14 12 9
11 13 13 12 12 10 3 16 16 10 3 4 7 5 9 7 7 7 11 9 6 5 2 6 3 4 1 5 9 7 9 14 22 12 13 20 22 22 17 18 19 14 9 9 10
12 12 12 12 12 16 16 8 3 2 6 14 13 8 3 2 8 8 8 7 6 2 7 7 6 8 14 13 16 18 18 19 22 16 12 18 19 10 20 22 19 15 4 5 14
13 13 12 11 7 20 7 4 5 3 10 24 24 21 15 7 7 10 2 4 7 8 8 7 16 14 15 16 17 18 17 19 22 18 11 16 21 19 21 19 22 15 8 5 19
14 13 13 9 20 11 7 8 6 9 5 8 19 14 15 20 18 21 13 13 13 12 12 14 7 10 15 15 13 18 9 17 20 15 14 12 20 18 27 19 21 18 18 15 24
14 14 11 6 12 6 4 6 6 4 5 8 9 10 14 8 9 25 22 14 8 20 12 14 15 16 16 16 7 17 7 4 12 9 10 11 13 24 17 20 14 17 14 21 22
17 16 12 23 8 7 6 7 4 4 3 5 6 8 15 15 4 3 17 11 19 16 7 13 9 7 2 2 5 3 8 5 3 7 12 12 9 21 2 14 10 11 13 19 17
19 18 13 7 3 6 11 6 3 3 13 6 6 7 9 19 5 5 4 2 3 4 8 16 4 4 3 3 1 4 5 3 3 1 11 14 15 18 12 7 6 7 8 23 20
18 12 17 9 6 12 10 5 4 7 6 7 6 10 13 10 10 9 8 6 7 3 4 2 8 3 5 4 5 6 6 3 4 5 7 6 7 14 10 11 6 16 14 20 20
13 10 4 0 11 15 6 6 8 14 19 3 5 6 14 12 12 15 14 13 7 7 1 5 6 11 10 14 6 6 9 5 5 3 5 5 6 6 10 18 18 18 24 20 18
5 2 2 3 10 10 8 13 13 8 11 9 18 11 16 10 12 13 18 16 13 13 9 5 7 5 8 6 11 3 7 2 6 6 4 6 4 7 14 8 20 19 20 18 17
1 1 1 2 4 4 8 17 13 14 14 7 4 3 11 10 8 5 2 5 16 13 11 2 2 4 6 8 8 7 6 2 2 4 5 5 1 6 15 12 16 16 16 17 17
1 2 2 3 0 2 9 9 11 17 11 9 5 5 5 3 4 3 3 5 4 6 18 7 4 2 2 6 11 7 9 1 3 4 3 4 4 1 9 9 12 13 15 14 16
2 4 4 2 5 3 8 6 4 12 16 7 6 8 9 8 8 8 8 6 5 5 15 4 1 5 8 3 7 9 17 14 3 3 2 5 2 4 7 1 8 14 16 14 16
4 2 2 1 6 7 4 13 13 9 13 6 8 7 3 3 2 2 4 3 1 4 4 8 4 3 1 3 3 5 4 6 6 4 5 2 2 4 9 6 14 14 13 12 12
4 5 1 1 1 4 7 8 8 12 12 14 5 10 2 5 5 2 3 4 4 3 1 2 2 4 5 3 1 3 10 10 6 3 1 3 5 3 10 11 12 12 12 13 13
4 3 6 6 10 7 8 5 16 9 8 13 9 8 6 5 6 7 4 2 3 5 1 3 3 3 3 6 7 8 3 5 8 5 5 5 9 10 12 12 11 12 13 14 15
3 4 6 4 13 18 13 8 16 17 9 16 8 8 10 7 4 2 8 6 4 5 5 1 3 0 3 8 4 5 6 5 4 5 1 15 11 10 11 10 12 11 12 12 12
3 3 4 2 8 12 17 17 8 13 10 10 9 9 7 8 6 4 6 6 2 7 5 6 3 4 3 7 3 3 2 3 9 13 4 5 8 11 10 10 10 10 10 10 9
Wind_Direction
336 321 293 270 265 262 265 269 271 273 281 303 318 325 325 321 316 294 252 234 184 180 254 279 273 236 239 249 256 321 223 258 257 254 270 306 344 322 301 32 49 123 165 231 161
330 324 321 326 312 275 264 256 255 256 264 289 307 321 323 329 300 275 215 139 148 185 271 261 294 322 254 237 255 158 228 244 245 268 293 308 316 318 342 332 308 243 276 259 255
327 321 316 309 304 302 288 255 245 230 242 260 292 319 323 331 293 235 188 174 199 199 238 309 296 296 270 285 249 242 243 262 265 277 290 297 307 307 319 310 287 261 248 241 208
311 316 315 309 307 300 302 293 248 217 224 238 265 319 318 323 282 171 191 200 204 253 246 291 277 290 287 276 264 267 273 269 273 271 273 282 289 285 280 272 293 302 278 260 233
290 296 303 304 301 296 287 295 263 214 194 221 233 325 329 235 245 267 221 197 192 206 252 250 271 272 253 265 305 271 274 287 301 302 303 305 294 281 274 280 281 292 296 272 238
275 284 289 289 293 286 285 282 278 213 181 202 225 40 233 253 267 259 259 169 221 178 256 258 257 277 282 280 279 288 287 281 284 289 292 292 287 283 297 297 265 259 272 261 230
273 285 286 280 277 293 294 277 275 193 170 192 219 237 251 244 263 299 305 277 255 199 224 252 255 259 309 308 280 302 311 302 284 269 268 275 276 264 277 261 261 253 251 242 227
287 291 284 279 273 284 289 277 260 179 170 177 200 283 251 253 251 261 258 275 266 251 221 265 302 291 274 289 307 298 292 291 233 260 264 244 268 260 252 246 254 256 245 225 204
291 285 285 281 267 263 267 282 169 161 152 146 237 209 263 293 221 243 236 239 246 240 220 208 274 244 326 312 304 226 262 260 285 251 261 249 270 290 333 296 253 246 241 210 193
286 285 285 280 275 252 128 102 108 112 134 209 266 312 253 237 189 240 205 208 219 265 219 202 182 200 228 164 244 256 256 278 287 302 333 312 298 304 302 306 313 258 219 194 166
287 286 285 284 273 130 114 106 146 198 214 201 187 218 204 266 150 195 169 174 174 191 213 225 184 206 228 225 238 256 266 279 291 309 305 288 284 320 314 307 299 286 221 193 115
290 287 281 275 172 151 162 196 224 220 281 224 246 234 258 275 286 240 301 219 176 204 216 251 244 227 231 236 249 258 275 288 293 304 315 308 297 299 295 281 284 299 201 181 122
291 293 283 274 160 162 189 210 322 329 273 246 208 230 229 220 242 239 245 242 224 227 215 225 223 237 248 257 262 257 255 276 283 303 303 308 292 290 270 271 269 279 249 175 135
293 287 275 239 149 148 213 224 272 308 317 270 205 236 198 207 247 234 224 227 214 230 245 247 235 255 262 272 271 284 217 18 351 358 289 54 299 274 282 290 292 245 295 99 103
295 284 267 159 139 172 165 167 232 56 328 237 168 148 154 172 243 137 191 196 226 235 195 244 268 247 291 333 40 282 61 45 337 296 306 275 251 273 312 284 280 307 136 99 96
294 275 213 198 124 156 153 132 100 109 239 271 132 166 144 198 235 113 134 190 124 226 234 254 120 159 227 322 343 57 61 6 307 270 255 269 226 282 253 275 321 17 115 109 94
303 235 167 158 177 157 133 134 171 201 219 229 188 171 186 189 225 229 219 177 163 117 249 326 253 197 179 235 256 96 69 330 290 211 255 274 255 250 294 320 281 135 89 76 82
28 119 21 105 150 148 144 178 191 225 229 238 331 214 202 188 212 203 222 246 206 177 95 196 306 221 193 201 178 148 143 185 252 255 319 335 253 269 6 92 81 84 86 71 71
344 2 47 328 169 164 169 202 208 222 222 233 260 263 273 226 187 205 210 216 226 178 173 210 241 347 156 175 173 170 194 176 292 278 265 235 282 72 60 44 93 82 79 73 69
110 16 274 75 137 215 195 214 233 233 279 292 244 280 241 241 260 190 81 258 236 226 152 178 311 232 197 144 202 156 153 137 192 262 248 266 37 34 21 93 69 70 78 85 70
158 169 140 145 286 169 207 224 233 248 266 246 269 271 248 305 297 176 252 315 357 327 178 142 156 215 39 183 191 186 230 125 156 234 286 311 81 351 68 67 85 84 78 74 75
217 211 146 214 178 236 209 210 210 251 247 257 243 220 237 249 245 258 187 219 327 355 205 160 77 223 217 154 229 220 220 205 177 238 326 346 108 126 96 153 143 110 88 75 71
172 171 160 151 204 211 241 240 242 236 221 215 222 208 268 263 237 309 107 173 223 42 251 140 187 202 278 9 274 240 216 164 185 151 219 257 107 174 158 93 93 92 85 82 79
142 173 137 130 288 232 209 225 226 268 243 226 222 243 221 249 208 219 133 198 240 181 244 165 248 196 170 167 285 228 238 215 157 125 197 279 130 161 83 90 75 82 73 62 55
225 166 180 181 217 215 220 239 218 229 259 211 211 206 182 236 225 225 154 148 234 116 160 107 258 269 313 193 181 286 319 248 214 190 152 229 123 92 77 69 63 63 59 50 43
190 184 176 281 200 202 218 202 231 220 220 215 187 207 206 220 216 193 138 208 173 143 169 98 279 73 338 270 194 253 314 307 307 319 20 116 104 89 76 67 56 50 59 58 47
228 269 160 285 193 182 213 220 250 238 226 228 200 204 225 212 117 326 121 161 220 148 162 152 167 113 232 223 309 322 350 1 84 44 17 60 118 122 93 76 53 66 67 68 63